Location: Unspecified
(0.0000°N, 0.0000°E)
Time: 23:19:23
(UTC+00:00)

LES 2 - Pass Details

Date: 22 August 2024
Orbit: 2771 x 14804 km, 32.2° (Epoch: 05 September)

Event Time Altitude Azimuth Distance (km) Brightness Sun altitude
Rises 21:14:16 0° 253° (WSW) 6,679 ? -46.7°
Reaches altitude 10° 21:18:56 10° 239° (WSW) 5,963 ? -47.8°
Maximum altitude 21:34:05 28° 180° (S) 6,323 ? -51.4°
Enters shadow 21:36:59 28° 170° (S) 6,767 ? -52.1°
Exits shadow 22:08:24 12° 123° (ESE) 12,696 ? -59.4°
Drops below altitude 10° 22:12:33 10° 120° (ESE) 13,404 ? -60.4°
Sets 22:45:51 0° 104° (ESE) 17,914 ? -67.8°
